GFSNIL_850_spd_003.txt.gz
Wind_Speed
16 17 17 18 20 21 21 23 22 23 21 22 20 21 19 14 15 17 20 24 23 26
15 16 17 17 18 21 23 24 24 24 24 21 17 16 15 16 16 17 20 19 15 14
16 18 18 19 22 24 24 24 23 22 20 18 18 20 21 22 23 21 18 15 14 14
16 17 18 20 21 20 21 21 22 25 22 21 24 27 23 17 19 19 18 18 18 18
17 18 19 19 20 19 18 18 20 23 26 24 20 19 20 20 18 19 19 19 21 22
17 18 16 17 18 18 18 20 20 22 22 23 23 23 22 21 22 20 21 23 24 24
17 14 15 16 17 18 19 21 21 21 21 20 21 22 22 18 19 23 24 24 24 23
15 14 16 17 18 19 20 20 19 20 20 21 21 22 21 23 23 22 24 25 26 26
17 16 17 17 18 20 20 20 20 22 22 21 21 24 28 30 31 27 26 26 26 27
18 17 17 17 19 20 21 21 22 22 21 21 21 26 30 34 35 27 26 26 26 26
17 19 17 18 20 21 22 22 22 22 20 21 23 27 33 36 32 25 25 25 25 25
20 18 18 19 21 22 23 23 22 20 21 24 26 27 30 32 27 23 24 23 22 23
17 18 17 19 22 22 23 23 22 22 23 26 26 24 27 27 27 24 23 22 22 23
18 17 18 20 21 23 23 22 20 28 26 24 21 24 24 26 25 23 26 24 23 21

GFSNIL_850_spd_006.txt.gz
Wind_Speed
12 12 14 16 21 20 17 22 20 19 20 19 23 25 25 23 24 23 26 21 18 25
13 14 20 21 16 18 16 16 19 26 27 25 28 29 28 25 25 28 26 26 28 22
22 18 14 16 17 18 22 26 25 22 26 22 22 20 25 29 28 26 22 23 24 22
16 15 16 16 19 22 27 29 24 25 27 26 24 24 25 26 25 22 23 22 22 24
17 18 17 18 22 22 21 19 20 23 23 24 23 24 25 26 24 26 22 22 23 26
20 19 16 18 19 17 20 21 22 23 24 23 23 23 23 23 19 19 20 22 26 26
22 18 17 17 18 20 21 22 23 22 22 23 24 25 23 22 24 28 32 36 31 32
24 20 15 16 17 19 21 21 21 23 24 25 25 23 24 28 31 32 34 36 37 31
26 20 15 15 16 17 21 20 24 24 25 24 21 24 29 34 34 35 36 39 41 29
23 21 14 15 16 17 21 23 24 26 23 21 20 23 32 35 36 37 38 36 28 29
23 16 14 14 17 17 21 23 25 21 21 22 27 30 33 34 32 34 34 28 27 27
17 15 19 11 18 18 24 23 20 22 25 29 34 32 30 28 33 30 32 27 24 24
12 16 14 14 15 19 20 20 26 30 30 34 29 25 25 29 27 29 32 28 28 27
16 16 15 15 19 18 21 23 23 27 31 27 22 24 23 26 24 27 30 29 26 21

GFSNIL_850_spd_009.txt.gz
Wind_Speed
16 15 15 17 27 18 19 19 18 20 25 31 29 27 27 27 25 25 27 25 27 29
15 19 24 20 15 18 19 18 23 30 27 27 25 25 24 27 27 26 23 20 21 22
26 19 10 14 17 18 22 25 30 28 25 27 27 26 24 23 22 23 20 20 20 21
26 20 19 24 26 27 29 28 23 21 21 22 23 23 25 25 24 23 22 19 17 19
25 23 27 32 26 24 22 17 16 19 24 24 23 23 22 22 23 23 20 19 22 25
26 23 31 30 19 17 16 20 20 17 19 22 24 26 26 25 26 24 26 31 34 34
36 26 25 15 13 13 17 19 19 17 19 25 25 27 25 27 29 33 34 36 34 35
31 25 19 29 15 16 20 15 15 19 22 23 23 26 27 29 32 34 39 39 38 38
27 26 30 27 16 13 14 13 17 21 20 19 22 27 30 32 34 39 34 31 37 36
34 37 31 16 15 20 19 13 18 17 18 21 28 25 27 35 33 30 30 33 33 31
32 35 22 14 14 17 13 15 16 16 21 25 24 29 30 28 30 31 30 31 31 27
29 25 20 19 13 10 15 14 15 20 24 27 30 27 29 30 30 27 31 28 33 27
28 24 22 18 12 13 10 16 19 22 24 28 28 28 26 28 28 26 29 34 29 21
23 19 18 14 14 14 18 19 19 22 27 26 28 26 28 26 24 29 31 27 24 22

GFSNIL_850_spd_012.txt.gz
Wind_Speed
13 20 25 25 32 32 23 20 19 20 25 26 22 20 21 20 16 20 20 18 18 20
28 29 31 29 29 26 24 23 21 26 26 25 23 21 21 23 22 19 18 18 18 19
31 31 35 32 28 27 28 27 26 21 25 22 20 20 17 20 18 19 23 22 22 20
30 33 34 31 28 32 30 27 23 22 19 20 20 20 20 20 21 21 23 20 20 21
28 30 33 28 28 23 20 13 14 23 21 19 19 23 24 23 25 24 25 27 28 32
26 28 29 29 27 24 18 25 16 18 18 17 21 23 24 25 24 24 27 30 32 35
36 33 23 27 30 28 34 18 10 14 15 20 21 23 24 23 25 27 30 33 36 32
34 31 32 32 30 23 15 12 8 12 20 19 22 20 24 26 27 31 34 30 26 29
32 31 35 32 26 16 15 10 16 16 18 20 18 23 23 28 31 29 28 29 30 28
28 33 37 29 24 21 17 12 13 15 16 18 21 23 26 27 28 29 29 29 30 27
31 33 30 23 23 23 7 10 15 12 17 19 23 26 29 30 29 29 29 28 28 30
28 31 25 15 14 13 10 11 12 15 17 21 26 28 28 29 28 27 27 28 26 21
27 24 19 15 10 10 11 13 12 13 18 23 25 26 26 25 28 28 26 24 22 19
23 18 16 14 12 14 11 9 11 17 21 23 24 24 25 27 21 20 23 22 20 17

GFSNIL_850_spd_015.txt.gz
Wind_Speed
17 21 22 23 26 28 29 29 24 22 21 19 21 18 17 19 19 20 17 17 17 17
22 23 22 23 27 29 29 24 19 20 19 22 19 18 16 17 18 18 20 21 22 21
19 21 22 25 28 29 25 21 18 21 15 16 19 17 18 19 19 23 24 23 23 22
20 19 24 26 28 23 18 21 31 27 19 15 19 18 18 21 23 23 24 26 25 25
23 28 28 26 23 22 26 28 31 28 24 16 17 17 20 22 24 26 24 26 28 31
31 27 24 24 30 29 27 27 25 24 20 13 15 19 22 24 26 24 26 27 33 35
28 27 26 28 33 29 24 23 18 16 13 12 20 21 22 22 24 26 28 33 31 29
27 28 29 31 33 24 19 19 19 17 14 18 19 20 19 24 26 30 31 30 28 27
27 28 28 31 29 21 19 21 19 17 16 15 16 19 24 27 28 28 29 29 29 29
22 27 28 32 22 19 15 12 8 12 15 13 21 23 25 27 26 27 28 28 28 28
26 28 30 26 17 15 14 14 12 10 13 20 20 24 25 26 25 27 28 25 22 22
25 30 26 21 18 16 13 13 10 13 17 18 22 23 23 24 28 29 24 20 21 18
29 23 21 20 16 14 14 12 14 14 16 20 20 20 21 24 26 24 21 21 19 15
20 20 20 17 13 14 12 11 11 15 17 18 18 19 21 24 23 21 21 21 20 19

GFSNIL_850_spd_018.txt.gz
Wind_Speed
13 14 14 15 18 22 25 26 28 23 22 24 21 20 21 19 17 19 17 18 19 22
16 17 16 18 22 25 28 27 22 18 24 31 28 22 12 16 17 17 17 19 19 21
21 18 19 25 29 27 24 24 23 26 26 28 23 14 16 16 17 19 20 22 23 23
18 23 28 25 22 22 25 22 24 26 28 27 25 16 15 16 21 22 23 25 27 28
22 25 20 20 25 25 29 23 21 23 24 22 22 16 15 18 22 24 25 28 31 31
24 21 21 24 27 30 30 23 18 20 18 19 14 12 16 22 22 24 26 31 32 35
22 21 24 25 26 31 27 21 16 20 20 18 15 17 21 19 21 25 30 33 34 34
20 20 22 24 27 31 23 20 19 21 17 15 18 20 15 20 25 31 33 33 32 32
21 19 23 25 31 26 20 20 18 15 18 14 16 12 22 25 30 31 30 31 32 30
19 22 24 28 25 22 20 18 18 15 13 11 13 22 22 28 27 26 28 30 26 24
20 23 28 26 22 21 20 20 15 14 9 15 20 21 26 25 24 26 27 24 21 22
22 27 26 22 22 21 16 16 18 12 16 17 20 23 22 21 22 24 24 21 19 19
25 25 22 21 22 15 14 17 14 14 14 19 20 19 19 20 22 24 23 22 20 19
24 21 20 21 18 15 16 16 13 14 17 19 18 17 17 20 20 22 22 22 22 19

GFSNIL_850_spd_021.txt.gz
Wind_Speed
12 13 11 13 16 20 26 27 29 28 26 21 23 24 20 15 12 15 15 16 17 19
10 11 13 18 24 26 24 24 26 23 21 19 25 22 22 18 13 15 15 19 19 22
10 15 21 25 23 21 23 26 26 20 20 24 25 27 21 19 17 15 18 20 23 23
14 20 24 20 18 21 25 27 24 20 20 20 23 21 23 20 15 17 23 23 25 25
18 22 21 19 19 22 27 28 25 21 18 18 20 22 21 13 13 23 24 24 26 29
21 21 18 16 19 25 29 28 23 19 18 21 18 18 13 14 21 22 22 26 30 32
19 18 18 19 23 27 29 25 21 21 19 23 17 11 15 19 20 20 26 30 32 33
19 21 20 21 26 28 25 22 20 20 18 16 16 13 17 15 22 25 31 31 30 31
20 20 20 24 26 25 22 21 19 19 19 15 11 10 16 21 25 29 28 28 29 27
20 19 21 24 25 22 21 20 19 18 16 13 11 17 20 24 26 25 25 27 26 21
19 20 23 25 22 21 21 17 15 16 15 12 17 18 23 24 23 22 23 24 21 18
20 22 24 24 21 20 19 12 14 15 14 15 16 22 23 22 21 21 22 21 17 17
22 25 25 21 20 20 16 15 16 16 16 15 20 21 20 19 20 20 21 19 19 19
23 25 20 18 20 17 15 14 15 14 15 18 19 19 18 18 19 18 18 20 20 18

GFSNIL_850_spd_024.txt.gz
Wind_Speed
8 4 6 8 11 13 14 14 17 18 18 17 15 14 18 17 18 15 14 14 15 16
6 6 7 11 11 11 12 14 18 19 18 16 17 18 19 19 20 18 15 16 16 16
5 8 13 10 10 10 12 16 19 19 18 17 18 21 21 21 20 16 16 17 18 19
4 9 11 10 11 11 14 17 19 19 18 17 18 19 20 21 19 15 16 17 18 20
10 9 11 12 12 13 15 18 20 18 17 16 17 18 20 16 12 13 16 18 18 22
10 12 13 13 13 14 17 19 18 17 17 17 18 19 14 9 10 14 15 15 19 23
13 14 14 14 15 15 18 19 17 17 16 15 14 13 10 9 10 11 14 17 19 19
14 15 15 14 14 16 18 16 16 16 15 15 12 11 9 8 12 15 17 17 17 18
20 15 13 13 15 17 17 16 16 15 15 13 8 15 12 16 16 17 16 16 17 17
16 14 13 14 16 17 16 16 15 14 12 11 9 14 18 18 21 16 14 15 16 17
12 13 14 15 16 16 16 16 15 14 10 8 11 16 18 21 18 14 14 14 15 16
15 15 15 16 16 15 15 14 13 13 11 10 10 17 20 20 16 13 14 14 14 16
15 15 16 16 15 13 13 13 12 13 12 14 14 19 19 18 15 15 14 14 14 17
14 15 16 15 12 13 13 13 13 16 15 15 17 17 19 17 16 13 14 14 14 14

GFSNIL_850_spd_027.txt.gz
Wind_Speed
4 3 2 5 6 7 8 8 11 13 16 17 17 16 20 20 18 21 20 20 17 16
5 5 5 6 7 7 7 9 12 14 16 17 17 18 20 20 22 20 24 20 16 15
4 6 6 7 8 8 8 10 13 15 16 17 17 17 19 21 24 23 23 16 15 15
6 8 7 9 9 10 11 12 14 16 17 16 17 16 17 20 22 22 20 14 15 17
10 9 10 11 12 13 13 14 15 17 15 16 17 18 20 20 20 14 12 12 14 16
12 10 11 13 14 14 15 16 17 17 16 17 16 17 15 17 12 13 13 13 14 18
13 12 13 14 15 15 15 16 17 16 16 17 15 15 13 11 11 11 13 15 17 19
14 13 13 14 15 14 15 16 16 16 17 15 14 13 12 8 8 13 16 18 17 16
13 13 13 14 14 15 16 16 16 17 17 16 12 17 16 13 14 14 16 16 15 15
12 13 13 12 14 16 17 17 17 17 16 13 12 17 15 15 17 14 13 13 14 15
11 12 12 13 15 16 17 17 17 16 13 12 14 18 17 16 19 12 12 13 14 14
10 11 12 15 16 16 17 16 16 15 13 13 14 19 19 18 17 11 13 13 13 15
12 13 14 15 16 16 15 15 15 14 13 13 13 19 21 18 17 14 12 12 11 16
13 13 14 14 14 15 15 16 15 19 18 14 17 15 20 20 17 13 13 12 11 10

GFSNIL_850_spd_030.txt.gz
Wind_Speed
16 12 3 8 10 14 12 15 15 15 16 18 17 17 18 20 23 25 23 26 24 24
14 12 12 12 17 11 12 11 11 16 17 16 17 17 17 18 22 23 23 24 26 22
13 10 10 10 7 12 13 12 14 13 15 17 17 17 16 18 20 22 25 23 21 17
13 11 8 4 10 12 14 15 12 14 16 16 15 16 20 22 28 20 26 23 22 13
13 9 8 10 11 13 16 16 15 16 17 16 16 18 20 21 16 20 16 13 12 13
10 10 14 11 14 16 15 16 16 18 18 17 17 17 17 18 17 13 13 15 14 15
12 14 13 14 17 16 16 17 18 19 18 17 19 15 18 13 13 15 11 14 15 17
11 15 17 16 15 15 17 18 20 18 16 16 19 16 18 17 18 18 16 14 17 16
17 16 14 13 16 17 16 16 17 17 18 19 19 20 20 19 18 16 17 14 16 17
15 16 12 13 11 14 17 18 19 19 18 20 22 21 19 17 17 17 11 14 15 16
10 8 13 14 16 14 16 18 18 19 18 19 18 19 20 18 18 18 13 13 16 15
10 11 13 16 12 16 18 18 19 19 20 18 18 21 21 18 18 19 15 16 12 14
12 13 18 13 18 19 18 17 17 19 16 17 18 20 18 19 21 19 17 13 14 16
14 16 14 17 17 17 16 17 20 24 24 22 22 25 22 20 20 20 19 17 16 11

GFSNIL_850_spd_033.txt.gz
Wind_Speed
24 23 22 21 16 13 14 17 19 22 21 18 21 18 18 16 16 16 17 20 20 20
27 24 21 18 16 15 18 17 20 18 17 20 19 19 16 15 16 19 19 22 23 24
24 21 17 17 17 16 15 13 15 17 18 18 18 16 15 17 18 23 26 28 26 21
20 17 17 17 13 7 10 19 18 18 18 18 20 15 18 21 24 26 25 25 17 14
19 17 15 11 8 15 13 16 18 18 19 19 18 16 21 23 25 25 23 17 17 16
18 15 11 13 17 13 14 16 16 17 18 20 23 17 22 23 22 25 19 17 16 15
16 11 16 14 12 10 19 19 17 20 24 25 19 20 23 26 24 22 19 20 17 16
14 15 9 13 16 20 18 18 22 23 24 22 21 23 25 27 23 20 22 19 19 18
17 15 15 21 20 14 19 16 20 20 22 22 24 25 26 25 24 20 19 19 18 18
16 15 9 11 11 14 16 21 19 22 23 25 25 23 24 24 21 20 20 19 17 18
12 11 7 5 9 16 18 19 23 23 24 25 26 23 24 22 21 21 20 20 18 19
8 7 3 4 14 17 21 24 22 20 22 25 25 21 21 23 23 21 21 20 18 19
6 5 6 12 12 19 24 25 16 20 21 22 23 23 24 25 24 22 21 21 20 18
7 10 7 13 17 20 20 18 21 23 24 26 28 26 24 22 23 22 20 19 15 18

GFSNIL_850_spd_036.txt.gz
Wind_Speed
32 33 30 30 27 22 19 19 19 17 19 20 17 18 17 18 16 15 16 19 22 24
30 28 26 24 20 18 17 15 17 16 15 19 22 18 18 20 18 20 20 23 27 30
27 26 24 23 19 16 16 16 14 14 18 18 20 22 21 23 20 21 24 28 30 30
27 24 22 19 18 17 16 14 19 15 14 19 23 22 23 25 22 24 25 28 28 22
29 26 25 21 19 21 20 21 12 13 17 20 21 22 25 25 23 25 28 26 23 20
29 28 23 24 27 25 20 13 10 15 17 18 22 23 25 21 24 26 26 25 21 23
36 29 27 28 25 15 11 10 9 14 16 22 21 24 22 22 25 26 24 23 21 22
25 22 26 22 14 14 12 8 8 14 17 22 20 26 24 24 25 26 25 22 23 22
18 18 14 12 12 12 14 14 7 17 22 21 25 23 26 24 25 25 25 23 23 22
23 22 22 16 13 10 1 7 16 20 20 25 24 24 25 23 24 24 22 24 24 22
19 15 13 11 5 9 13 13 10 20 25 23 21 21 23 23 23 23 24 24 24 23
21 20 6 2 15 18 8 15 20 22 23 19 19 19 20 21 23 24 24 23 23 22
17 4 17 18 8 10 15 18 18 16 16 21 23 23 21 22 24 24 22 22 22 21
12 16 11 10 12 16 16 15 17 20 21 24 21 22 24 22 24 22 22 22 21 20

GFSNIL_850_spd_039.txt.gz
Wind_Speed
34 30 28 26 26 28 27 26 22 20 17 19 19 14 19 23 20 18 17 15 15 18
31 31 31 28 27 28 27 24 23 18 23 25 14 16 17 16 18 18 17 17 19 23
32 31 31 30 29 29 26 23 23 29 27 23 13 15 14 17 18 19 20 19 21 25
31 32 30 29 30 32 31 30 31 26 19 13 13 13 16 19 20 21 19 20 22 23
30 29 28 28 30 30 29 24 20 17 16 11 12 16 19 19 20 20 19 20 22 23
32 29 28 29 27 23 24 22 19 16 13 12 13 16 18 20 20 20 20 22 21 23
31 31 30 26 25 27 23 20 12 9 8 8 12 17 20 23 22 21 23 22 22 22
33 31 28 27 27 23 23 17 13 8 4 11 21 22 21 21 19 23 21 22 21 22
31 29 27 26 22 18 17 14 10 15 19 17 19 21 19 19 21 21 21 23 22 22
28 26 26 22 20 19 11 13 20 19 17 21 20 23 24 21 18 21 22 22 22 23
27 27 25 22 15 7 19 15 13 16 18 21 23 20 18 16 17 20 22 23 25 23
24 22 17 8 13 16 13 11 13 16 21 18 16 18 18 18 17 21 24 27 26 22
20 13 13 15 20 11 10 13 16 18 17 19 21 20 19 18 20 23 26 24 23 21
15 13 19 13 10 11 15 18 19 20 20 22 23 24 22 21 24 24 24 24 22 21

GFSNIL_850_spd_042.txt.gz
Wind_Speed
37 37 33 30 31 27 25 25 26 28 25 22 14 35 26 21 12 13 13 14 13 12
36 35 37 34 31 27 27 28 29 28 33 26 33 22 16 10 11 12 12 14 13 14
37 35 34 28 26 26 29 30 34 33 28 27 19 14 8 6 11 13 15 15 13 15
33 30 26 26 28 27 26 31 33 27 23 13 10 9 11 9 12 15 18 15 15 16
27 27 29 29 26 26 28 31 23 21 15 13 16 22 9 15 16 18 18 17 16 17
30 30 26 23 24 25 26 26 26 22 19 21 21 8 11 18 19 21 22 17 19 19
28 26 25 23 26 26 27 27 20 20 19 8 11 12 15 18 22 25 21 20 22 20
25 27 27 26 25 25 25 22 25 21 17 19 20 17 23 22 21 22 22 22 23 22
26 27 26 25 28 27 25 26 20 22 18 19 21 17 16 21 24 24 23 23 22 23
24 23 23 23 22 19 15 10 15 18 19 17 13 15 21 25 25 23 22 21 22 23
19 21 22 18 14 10 10 15 19 15 11 13 15 20 20 20 21 21 22 21 23 25
16 18 17 15 6 12 23 15 11 11 13 17 18 18 20 22 21 21 20 20 24 26
17 16 11 15 19 20 15 12 13 15 18 20 22 21 22 22 22 23 23 23 24 27
8 11 13 16 14 13 12 16 18 20 20 22 24 25 24 22 23 25 26 27 26 25

GFSNIL_850_spd_045.txt.gz
Wind_Speed
30 29 28 31 31 29 30 33 30 32 32 32 27 23 20 20 11 10 9 8 11 11
32 31 31 32 32 32 31 32 31 34 34 32 29 19 21 10 9 6 7 12 13 14
29 30 31 32 34 35 31 29 32 37 36 32 25 19 12 10 9 9 9 14 15 14
29 31 32 34 32 29 31 33 34 38 37 32 23 16 16 16 16 11 14 16 16 14
20 23 24 25 27 28 27 29 32 38 34 27 22 19 21 21 18 16 15 15 18 17
20 22 25 27 27 25 22 26 31 31 28 22 22 19 24 27 15 17 19 19 21 21
23 26 25 23 18 17 19 23 27 28 28 25 21 23 28 20 19 22 23 22 24 23
19 17 16 14 15 16 19 22 26 23 22 18 23 26 24 24 20 21 22 23 25 25
11 11 12 13 16 16 18 19 15 13 15 24 23 21 19 16 19 21 24 27 27 26
7 9 12 13 14 15 16 16 11 15 20 20 19 15 15 17 21 25 27 26 25 25
4 8 10 13 15 13 7 10 15 18 16 15 12 13 17 19 21 24 25 24 24 25
3 8 10 12 9 10 14 18 17 13 12 15 15 17 19 21 25 26 26 25 24 23
4 3 3 7 11 15 16 13 11 12 15 18 22 21 21 23 27 30 29 27 26 25
3 4 8 9 10 8 9 12 15 17 18 20 21 24 25 26 27 28 28 28 29 29

GFSNIL_850_spd_048.txt.gz
Wind_Speed
31 32 31 27 30 32 29 28 27 30 33 32 33 33 30 28 25 22 15 10 10 11
28 26 27 27 32 29 27 28 29 28 32 33 34 34 32 28 25 15 14 12 14 13
25 23 23 25 26 28 29 30 30 26 28 35 35 34 30 23 18 18 17 17 11 14
17 18 19 23 24 27 28 30 25 29 34 35 34 34 26 24 21 15 19 19 14 16
13 16 17 19 21 22 25 25 28 31 32 37 36 32 26 22 21 23 28 14 16 18
17 18 19 20 22 21 20 21 22 27 29 32 29 27 25 25 20 25 19 18 18 20
17 16 17 17 15 15 15 16 18 22 22 22 26 25 18 18 27 27 21 22 22 23
9 8 9 8 8 9 12 14 15 14 15 19 21 19 23 27 29 24 25 20 22 23
2 1 2 3 4 5 7 7 8 12 12 15 19 23 27 26 22 20 19 21 22 23
2 2 2 3 4 6 7 8 7 9 13 17 22 22 20 16 17 19 20 22 22 23
5 4 4 3 4 4 3 5 10 12 16 15 14 12 12 16 21 21 21 22 23 24
9 7 7 4 2 3 6 9 12 7 7 8 10 16 16 20 23 21 24 24 25 26
11 9 7 2 4 8 9 4 4 6 8 13 16 18 19 20 24 26 28 28 28 29
7 3 2 4 4 2 3 7 10 13 14 16 18 19 22 22 25 27 28 29 29 28

GFSNIL_850_spd_051.txt.gz
Wind_Speed
29 29 28 29 29 26 27 29 28 25 26 26 29 30 31 29 30 28 25 21 18 20
26 26 30 30 29 27 31 32 28 28 28 29 31 32 36 35 33 28 26 25 19 15
25 30 28 26 25 30 31 30 31 30 28 31 30 32 36 35 30 30 27 22 14 18
25 20 19 17 21 25 23 24 28 29 29 32 32 34 35 30 31 28 23 16 16 20
17 17 17 19 22 25 19 19 22 24 25 27 32 37 27 29 27 21 17 19 19 18
20 18 20 20 21 19 19 20 21 22 22 26 29 26 22 23 20 19 17 22 19 18
19 17 14 13 13 13 13 15 15 15 16 16 16 16 20 20 20 23 22 25 25 24
10 7 7 7 8 9 8 8 8 8 8 8 9 11 14 18 19 20 23 26 23 22
8 9 8 7 7 6 4 3 1 1 3 2 7 10 14 16 20 23 22 20 16 17
9 7 7 7 8 8 7 5 3 2 2 6 10 14 18 20 19 14 15 17 19 21
10 11 11 10 8 6 5 4 2 4 8 11 10 10 10 12 15 17 18 20 21 23
13 13 12 10 9 7 4 3 6 4 4 4 4 12 15 15 19 20 21 21 23 25
13 12 12 8 3 1 2 2 2 1 2 6 7 11 17 19 21 24 24 23 24 27
11 9 5 1 3 4 2 1 2 5 5 7 7 8 17 22 24 25 31 35 35 33

GFSNIL_850_spd_054.txt.gz
Wind_Speed
33 31 29 31 29 28 30 34 31 31 27 28 27 26 26 26 29 34 32 31 29 24
25 34 32 34 27 30 26 29 31 33 30 23 24 27 27 30 33 35 33 29 26 25
30 34 30 25 27 30 27 32 31 32 30 27 25 27 28 31 33 35 34 29 27 21
39 27 30 28 31 28 31 31 22 21 24 25 24 26 31 32 33 34 29 24 17 17
25 28 29 29 26 25 23 22 21 16 17 20 24 27 29 30 29 25 24 18 17 20
25 26 26 22 19 19 20 21 20 18 19 20 23 24 24 23 22 21 18 18 22 19
23 21 21 19 19 19 20 19 20 20 20 18 16 15 17 18 15 14 17 19 19 21
22 19 17 16 17 17 17 16 14 13 11 8 6 6 6 6 9 14 16 18 21 22
12 13 14 13 12 12 11 10 8 7 6 5 3 2 4 8 12 14 18 20 15 12
15 14 11 11 8 9 8 8 6 5 4 2 1 4 8 12 14 14 11 12 14 17
15 14 14 14 13 12 10 8 7 4 3 5 4 1 3 6 8 10 12 14 16 19
17 18 16 14 15 13 11 7 4 3 5 6 2 6 9 11 13 15 18 20 22 24
17 19 17 15 13 8 7 9 8 8 6 3 4 6 12 15 19 21 24 25 27 28
21 17 13 11 9 12 13 11 10 8 6 4 9 12 15 18 22 24 26 28 30 31

GFSNIL_850_spd_057.txt.gz
Wind_Speed
33 37 35 39 32 30 32 35 35 36 36 29 27 29 33 32 31 30 31 33 38 33
42 39 43 39 30 32 27 27 35 37 38 29 25 24 25 28 29 29 32 36 32 33
47 45 42 36 36 31 28 32 33 32 28 25 24 25 24 27 27 28 34 33 34 29
47 45 39 33 32 25 29 28 30 26 20 20 25 26 25 27 27 31 32 32 27 23
44 41 41 30 30 32 32 29 27 19 17 16 19 21 21 23 26 26 25 23 20 16
38 31 38 41 36 31 26 23 21 19 19 17 16 18 19 20 19 17 15 14 13 13
23 25 24 28 28 24 21 20 20 20 20 18 18 17 15 11 11 12 11 10 11 13
27 27 23 21 22 22 21 19 19 18 18 18 16 12 10 10 10 8 8 10 13 16
28 27 21 20 20 19 18 18 18 17 14 12 10 10 11 10 7 7 9 11 12 9
25 23 20 19 20 18 18 18 16 14 13 12 11 9 7 6 7 9 9 8 7 9
22 21 21 20 19 19 17 15 14 12 9 7 7 7 7 7 7 7 8 9 13 16
20 21 20 19 19 16 15 13 11 9 10 12 10 8 7 8 7 8 10 13 15 18
23 22 21 18 16 16 12 10 11 13 12 11 9 9 9 9 10 11 12 15 17 19
23 21 19 17 16 13 17 17 17 16 13 12 10 11 12 12 13 15 17 18 20 22

GFSNIL_850_spd_060.txt.gz
Wind_Speed
42 41 41 39 38 36 36 35 34 32 32 31 35 35 25 31 35 30 34 34 32 35
44 44 44 42 39 40 37 36 34 32 34 31 31 33 31 32 31 29 32 30 30 31
46 43 42 42 41 39 39 39 32 29 29 28 27 34 33 29 22 26 29 27 28 28
46 43 44 41 35 40 37 34 39 35 35 37 33 28 25 23 26 25 27 29 29 26
36 43 41 37 45 34 30 27 28 28 28 22 20 22 23 24 24 26 24 24 24 23
37 33 43 41 43 33 39 27 30 30 31 22 19 16 19 22 22 20 20 19 18 18
41 41 37 43 31 40 42 38 34 33 26 23 21 21 21 21 19 19 19 18 16 13
37 41 42 40 38 40 35 38 33 25 23 23 23 21 21 19 18 18 17 14 12 11
33 28 30 34 33 36 36 30 27 25 24 23 21 20 19 17 17 15 12 12 13 14
31 30 28 32 32 30 26 27 25 23 21 19 17 17 16 15 14 14 14 15 16 16
32 35 34 31 28 27 25 23 22 20 18 18 17 17 16 15 16 16 16 15 14 14
30 32 31 29 28 26 24 23 21 21 20 19 18 17 18 18 15 13 12 13 14 17
31 32 29 26 25 23 22 22 21 20 18 16 18 19 16 14 13 12 12 13 15 16
28 26 24 24 23 23 23 21 20 20 20 19 16 16 15 14 12 12 12 13 13 14

GFSNIL_850_spd_063.txt.gz
Wind_Speed
43 46 46 44 46 46 45 43 42 38 38 38 37 35 39 38 35 21 31 32 32 35
45 46 48 47 47 48 45 42 38 35 34 34 36 38 37 30 28 27 32 31 30 35
47 46 46 46 46 46 43 41 41 37 35 35 37 38 37 36 39 37 32 27 28 30
50 48 46 46 46 44 42 41 36 36 33 33 35 35 37 38 33 30 26 24 26 27
45 42 40 45 44 45 45 44 35 39 35 37 39 38 35 27 23 23 26 27 26 25
44 37 35 45 42 42 41 44 42 38 51 31 29 31 23 20 22 24 24 25 21 21
49 43 44 38 38 49 47 41 37 34 37 33 31 22 22 20 22 24 24 21 19 20
46 46 50 47 46 43 43 42 37 35 36 31 28 24 24 24 24 25 22 22 22 20
46 46 49 47 43 45 44 42 38 33 31 33 27 24 25 27 26 24 22 21 20 21
44 44 44 42 41 40 42 41 31 29 31 26 25 26 26 24 23 21 21 21 21 19
40 42 42 40 38 34 33 30 30 30 25 24 23 24 24 23 22 21 19 18 17 19
36 38 37 33 29 29 30 28 25 24 23 22 22 21 21 20 18 18 19 18 18 17
28 28 30 30 32 29 27 27 25 24 21 22 22 21 19 18 16 16 15 15 15 16
26 28 28 30 30 29 28 26 25 25 23 21 19 19 17 16 15 14 13 14 16 17

GFSNIL_850_spd_066.txt.gz
Wind_Speed
39 40 41 44 46 47 43 45 41 48 49 45 38 36 39 37 37 37 37 29 22 23
39 40 41 39 40 45 46 44 42 44 47 43 38 39 35 34 35 34 30 29 28 27
39 39 39 39 38 39 39 41 42 44 43 41 42 39 36 35 34 31 28 33 34 38
40 38 37 38 39 40 40 41 41 41 43 43 41 39 38 34 32 36 38 41 34 34
42 41 39 36 35 38 40 40 42 43 41 41 35 35 28 30 32 34 35 34 34 28
46 46 45 40 34 43 44 45 46 50 44 43 37 38 40 33 31 31 24 24 27 27
51 49 46 43 45 35 41 37 43 41 36 37 38 38 34 33 28 23 22 23 26 28
47 49 48 47 48 44 40 37 43 43 42 40 38 31 31 32 26 25 25 26 25 23
37 40 42 45 49 52 49 45 43 45 43 35 35 39 35 27 29 27 27 27 26 23
33 34 36 40 44 46 48 50 47 43 40 35 29 29 29 28 27 27 26 24 23 23
31 33 35 36 40 40 42 41 41 37 31 29 29 31 30 27 26 23 22 21 21 20
29 31 34 36 38 37 34 32 30 28 26 26 28 29 27 25 23 22 21 21 20 19
27 28 30 31 33 32 29 27 27 28 26 27 26 24 23 21 19 18 19 19 19 19
24 23 23 24 24 25 27 28 30 29 26 25 22 21 20 17 17 16 17 17 16 15

GFSNIL_850_spd_069.txt.gz
Wind_Speed
34 41 42 45 44 47 46 47 45 45 44 44 43 40 36 33 31 33 33 34 32 28
36 39 43 47 45 51 49 48 49 46 43 45 45 45 46 44 40 37 35 31 28 31
35 37 40 42 46 51 51 51 51 51 48 49 46 42 44 44 43 40 39 34 30 26
37 38 39 42 43 46 47 48 50 51 49 45 42 41 41 43 41 43 43 39 33 32
39 39 40 40 39 38 39 38 37 38 39 40 39 40 42 43 41 35 38 31 28 30
38 43 44 44 43 42 43 43 40 37 36 37 40 41 40 39 43 33 36 31 31 28
43 46 42 42 43 42 41 41 39 40 36 40 47 40 39 37 36 37 34 29 22 23
33 38 44 47 43 40 44 44 42 34 36 39 37 33 29 26 31 31 32 26 24 26
28 29 32 35 41 44 44 44 43 43 39 35 36 32 32 32 34 31 31 30 27 29
28 28 28 28 30 33 39 42 44 43 43 42 39 34 36 38 30 30 31 31 31 31
30 28 27 27 29 30 32 35 35 35 37 40 39 39 35 30 28 29 32 29 29 27
32 29 29 29 29 27 27 25 26 30 30 32 32 30 31 29 30 30 28 25 24 23
30 29 30 29 25 25 25 25 27 28 28 26 27 29 30 29 29 29 29 27 23 21
26 26 25 21 21 23 25 25 25 26 26 25 25 27 24 24 25 25 25 19 19 17

GFSNIL_850_spd_072.txt.gz
Wind_Speed
29 30 28 32 38 45 43 45 58 55 49 52 45 43 40 38 38 31 29 27 26 25
32 33 33 32 34 40 42 44 48 48 48 46 44 44 38 40 40 36 35 35 33 27
35 37 36 36 38 42 41 38 38 46 47 46 41 37 37 39 37 34 35 32 31 31
35 37 39 43 44 44 42 42 44 48 45 41 42 41 38 38 37 36 37 35 40 41
36 37 40 44 46 47 51 46 45 43 42 44 46 47 42 40 39 40 36 36 42 40
39 41 43 45 46 43 43 41 40 41 44 47 53 58 57 52 46 35 37 37 38 38
43 44 44 44 44 46 45 43 45 48 50 49 50 50 42 44 43 45 49 49 50 48
40 41 41 41 41 42 43 44 42 42 44 43 44 44 42 42 46 44 44 38 38 38
32 33 37 39 40 37 38 38 36 37 37 37 42 39 40 44 36 35 33 33 35 35
31 32 32 32 32 34 35 34 36 34 33 35 35 39 35 32 31 33 34 34 39 35
32 31 29 28 29 29 29 30 32 34 34 36 39 36 33 34 33 36 36 38 35 35
32 31 29 28 26 26 27 29 29 30 29 30 27 27 28 30 33 34 32 33 34 34
30 29 29 27 29 29 25 21 21 25 25 26 28 28 28 28 27 29 32 31 30 27
26 26 28 32 28 24 19 19 23 24 25 26 26 25 25 26 25 29 32 32 31 27

GFSNIL_850_spd_075.txt.gz
Wind_Speed
33 34 31 33 39 40 49 53 58 52 49 47 49 44 43 41 38 32 33 34 31 30
32 31 31 31 35 35 44 51 59 55 54 49 55 51 47 43 42 37 39 39 37 37
29 31 31 32 35 40 39 48 57 57 58 62 57 52 49 48 51 51 44 41 38 36
31 31 33 33 35 35 35 39 43 48 51 62 62 58 53 52 48 49 44 41 41 39
32 32 35 38 38 38 41 39 45 42 47 51 54 58 54 51 51 48 42 40 38 40
39 39 41 42 42 40 39 41 40 41 39 41 46 46 49 49 47 44 44 44 42 41
43 44 43 40 39 40 42 42 43 43 43 45 43 44 45 44 45 45 44 45 44 46
43 42 37 39 40 40 43 44 45 45 46 47 47 48 48 47 48 47 48 50 50 49
35 38 40 41 42 41 42 45 42 45 46 47 48 49 51 51 52 53 50 48 50 52
36 38 41 40 38 42 44 42 45 46 45 45 44 46 47 48 46 43 41 45 42 44
36 37 35 37 39 41 40 42 43 44 43 41 40 40 42 41 36 36 42 40 39 40
38 38 35 37 39 38 38 38 39 37 37 39 38 39 38 37 37 37 41 43 44 43
34 35 35 35 34 36 36 34 33 36 37 37 38 38 38 37 38 39 42 42 38 35
32 35 35 33 31 30 36 38 37 34 32 33 34 33 33 33 32 31 33 32 30 25

GFSNIL_850_spd_078.txt.gz
Wind_Speed
31 31 34 36 42 44 54 58 55 52 49 53 46 39 42 40 39 34 33 30 30 34
35 34 34 32 36 43 44 51 61 60 56 55 50 45 45 45 45 44 42 39 35 37
40 40 41 32 34 36 37 43 50 64 62 60 56 51 48 50 50 50 49 46 45 40
34 36 41 42 41 39 39 41 42 53 63 63 62 56 51 53 54 57 56 50 48 46
30 31 33 39 39 38 39 42 41 40 47 53 56 62 60 56 54 56 57 52 51 54
37 38 38 38 38 37 38 39 40 41 48 50 51 59 62 62 61 58 53 49 46 46
43 43 41 40 40 38 38 40 39 40 41 42 44 47 54 55 53 53 58 54 49 49
42 42 41 42 42 42 43 42 42 44 45 46 47 48 49 51 53 54 54 53 51 49
39 41 42 43 42 42 45 46 47 47 47 47 50 49 47 48 48 47 46 47 48 49
40 41 44 44 43 46 47 45 49 49 49 51 51 51 51 51 50 46 46 50 52 54
40 43 42 41 45 46 46 46 47 49 48 48 50 48 48 47 46 48 50 51 52 52
39 39 39 40 44 45 42 43 46 44 43 46 45 44 44 41 43 45 49 51 47 44
38 39 41 42 41 39 39 40 38 38 41 42 44 45 43 41 42 42 44 44 46 44
17 36 38 38 37 35 34 35 38 39 40 41 42 43 42 42 43 44 45 48 47 41

GFSNIL_850_spd_081.txt.gz
Wind_Speed
34 33 35 35 35 42 50 51 49 43 46 43 43 40 37 37 39 36 36 33 35 33
36 34 34 33 34 37 45 50 50 50 49 48 47 43 39 38 38 38 40 42 39 36
35 34 35 34 35 37 39 45 52 51 54 51 48 45 43 43 41 43 43 43 43 40
36 36 36 37 35 35 34 39 46 50 57 59 60 55 52 50 51 49 50 50 49 48
29 35 39 40 39 36 37 38 39 43 52 58 64 61 62 58 55 55 55 55 54 55
34 34 36 40 42 41 39 40 38 40 44 50 53 59 67 67 63 60 60 56 58 59
37 37 36 35 36 40 42 43 43 44 44 45 47 48 55 64 66 64 64 65 61 60
38 38 38 38 38 38 41 43 44 45 46 45 47 49 48 50 55 57 58 60 62 61
36 39 42 43 43 42 43 44 44 47 47 48 48 48 48 47 48 50 52 54 56 57
37 39 41 44 44 46 47 47 50 49 48 50 50 49 49 47 47 48 51 52 54 55
27 41 43 44 46 46 47 48 50 51 53 52 54 52 51 49 48 49 51 50 52 52
11 17 31 47 46 46 47 48 49 49 50 52 53 54 52 48 49 50 51 53 53 51
24 23 22 32 48 47 46 46 46 46 46 47 48 49 50 50 49 51 55 57 59 58
28 26 24 25 36 43 46 44 43 44 45 45 45 45 44 45 46 48 49 50 51 53

GFSNIL_850_spd_084.txt.gz
Wind_Speed
34 33 29 31 34 42 42 43 45 47 45 42 38 38 38 42 43 41 40 41 40 41
35 34 34 32 34 34 40 44 47 47 48 46 44 42 42 44 44 42 40 39 41 41
34 37 36 34 35 37 34 36 43 48 49 48 46 45 43 43 43 44 42 39 40 42
33 36 38 37 36 36 36 36 39 45 51 53 50 48 49 48 47 46 45 45 47 48
28 33 35 37 36 34 36 36 37 40 48 56 55 54 54 55 55 54 53 51 51 52
29 29 32 35 37 37 37 38 38 39 42 47 53 58 59 60 59 56 57 56 56 57
27 29 31 31 34 35 39 41 42 42 43 44 46 49 54 58 62 65 66 66 65 62
31 29 30 33 33 34 36 38 40 42 44 45 47 47 48 51 56 58 59 62 65 66
32 36 38 37 36 37 37 39 41 43 45 47 48 49 49 48 50 52 54 55 57 61
24 22 28 37 40 41 43 43 44 44 44 48 49 48 48 48 49 50 52 53 53 54
5 11 19 27 34 42 47 48 48 49 48 48 49 48 47 47 47 49 51 51 50 50
13 13 14 16 22 31 39 48 52 53 51 53 50 49 49 48 48 49 50 50 48 50
21 17 16 18 22 23 28 39 47 52 54 51 51 49 47 48 50 53 52 54 55 56
24 24 21 19 20 24 26 28 35 42 48 49 50 49 49 50 50 51 52 53 53 53

GFSNIL_850_spd_087.txt.gz
Wind_Speed
30 28 27 25 23 27 31 34 36 36 38 38 39 39 40 40 42 44 40 37 39 40
31 31 31 29 26 27 31 35 38 38 38 38 38 39 38 42 42 45 37 36 44 47
29 31 30 27 29 30 30 34 37 40 41 41 42 42 40 38 37 42 46 45 47 47
26 29 30 30 30 28 31 31 35 37 40 43 46 46 46 43 42 45 45 47 50 49
24 26 30 34 33 32 31 32 33 33 35 40 46 49 50 50 50 50 50 50 51 51
25 27 27 29 32 33 32 33 34 36 38 38 39 44 50 52 52 52 52 51 53 53
24 25 26 25 27 29 33 35 35 37 39 40 41 44 46 51 56 58 58 58 58 58
19 22 24 26 25 27 30 32 33 35 38 42 43 46 47 49 53 56 59 61 63 63
16 18 21 26 30 31 33 35 37 40 41 42 44 45 47 49 49 51 53 56 58 60
10 12 17 22 25 26 29 34 40 43 45 46 47 46 47 48 49 50 52 52 52 53
1 5 8 11 17 25 27 32 36 38 42 47 50 50 49 47 47 49 51 53 53 53
11 8 7 8 12 15 17 21 29 33 42 44 46 45 44 48 49 50 51 51 50 52
14 13 13 13 13 13 15 19 20 24 30 31 43 45 46 46 46 47 48 52 55 52
17 16 15 14 14 15 16 16 14 16 18 28 35 41 46 48 47 48 49 50 54 57

GFSNIL_850_spd_090.txt.gz
Wind_Speed
22 23 24 22 23 23 27 29 34 30 26 28 34 38 40 39 38 39 45 41 39 37
22 23 24 23 21 18 22 26 30 31 28 29 32 36 37 43 45 39 41 43 41 40
21 22 22 20 20 19 18 21 23 28 30 28 33 35 37 36 40 42 45 42 42 44
19 20 22 20 20 20 20 20 23 24 28 30 32 34 36 39 39 42 41 44 45 50
17 17 21 22 22 21 20 20 22 24 29 32 35 37 38 39 41 43 44 44 43 43
16 16 18 19 22 23 23 23 23 25 26 28 31 34 37 40 42 45 47 46 46 47
15 14 14 17 17 20 24 25 28 28 29 30 32 34 35 36 40 45 50 52 52 53
10 13 14 17 20 19 18 21 23 27 29 31 34 36 36 38 41 42 44 46 50 54
14 11 13 16 19 20 20 20 22 25 29 33 34 35 36 38 41 44 45 47 49 51
10 13 15 18 20 22 26 23 26 27 27 32 33 36 39 40 43 45 47 48 48 48
4 6 8 11 12 15 19 21 26 28 30 33 34 37 37 36 36 40 43 44 45 47
9 6 3 3 9 12 14 16 18 22 27 28 29 36 42 42 38 41 42 40 42 44
10 9 7 5 4 4 4 5 8 13 19 21 25 31 34 39 39 40 44 48 49 50
10 10 10 9 7 6 6 5 5 5 8 11 14 18 25 30 31 32 32 36 37 42

GFSNIL_850_spd_093.txt.gz
Wind_Speed
18 18 18 15 20 21 24 22 19 26 26 39 35 34 38 43 39 41 43 39 36 36
20 21 21 18 17 18 20 24 20 23 26 30 29 33 35 42 39 44 42 39 38 35
19 19 21 20 20 19 17 21 22 24 26 26 27 29 40 39 42 43 45 39 41 45
18 18 21 18 16 16 14 16 21 22 24 23 22 23 26 33 39 40 42 42 39 41
16 15 17 17 15 14 14 14 16 19 21 23 25 25 28 32 38 38 41 40 44 44
14 13 14 15 16 16 15 14 15 16 19 21 25 28 29 31 34 34 37 39 40 43
10 9 10 13 12 15 16 16 18 19 19 20 22 25 27 31 34 36 38 39 40 42
8 8 10 13 14 14 13 16 18 21 22 23 24 27 28 29 31 33 34 36 38 40
11 11 14 16 16 15 16 20 16 19 21 23 25 27 27 29 32 33 34 36 37 39
11 10 12 13 14 14 17 18 19 22 24 22 24 26 29 33 34 35 38 38 40 42
8 7 8 9 10 12 13 16 19 20 20 24 25 29 31 32 31 32 34 34 33 36
9 9 5 5 6 8 8 9 11 12 14 17 21 26 30 32 32 33 35 37 40 45
11 10 6 4 3 2 3 4 5 7 9 12 13 18 21 24 24 22 23 26 30 36
11 10 7 6 4 3 2 2 2 1 2 4 8 10 13 15 16 14 15 18 21 26

GFSNIL_850_spd_099.txt.gz
Wind_Speed
25 20 17 17 22 22 26 26 24 24 24 23 19 24 30 35 37 38 34 30 29 29
25 22 18 19 23 20 23 27 24 26 29 30 27 27 26 28 30 31 34 35 36 37
24 22 20 18 19 19 19 22 23 24 25 30 34 34 35 34 34 33 35 38 38 35
22 20 20 22 19 19 20 21 23 22 21 28 31 37 36 34 35 34 34 36 40 37
23 21 24 22 20 22 20 18 20 22 21 21 23 30 32 38 34 33 37 35 35 38
22 22 24 21 20 20 19 19 19 19 23 22 21 22 21 25 36 32 30 34 31 27
19 19 23 20 19 16 16 16 16 16 15 18 19 19 19 21 25 25 25 26 27 29
19 18 17 21 18 19 21 17 16 17 16 13 15 21 21 20 21 23 22 22 27 34
22 21 25 21 23 20 21 22 19 19 19 21 22 22 23 25 27 26 28 29 30 30
22 23 24 23 22 23 22 21 20 20 20 21 24 23 24 24 23 23 22 24 25 26
14 18 23 24 24 24 22 23 24 23 22 21 22 22 22 25 27 29 32 33 31 32
17 13 14 19 16 19 18 16 16 16 17 15 15 18 20 22 23 24 25 26 28 31
16 18 14 17 18 16 15 12 12 8 6 5 2 3 5 9 10 12 13 12 13 16
16 11 17 14 16 13 12 7 10 9 7 7 6 4 4 6 9 9 8 6 5 6

GFSNIL_850_spd_102.txt.gz
Wind_Speed
32 31 26 29 25 26 19 20 19 19 15 14 17 23 34 35 43 39 38 32 31 28
30 30 29 24 24 23 20 21 19 20 18 15 19 22 29 31 39 37 33 32 30 30
31 30 27 24 27 22 17 21 22 21 24 23 19 24 25 32 34 35 36 33 31 31
29 30 26 26 22 20 16 18 21 24 27 29 27 25 27 29 31 26 35 33 36 36
22 28 26 22 22 20 18 16 16 21 24 24 31 31 34 33 30 29 34 33 32 33
23 24 24 20 19 20 20 18 15 19 21 24 24 30 34 34 31 33 32 33 33 29
31 25 22 21 23 19 20 17 16 16 17 20 20 24 28 32 34 36 36 31 28 30
22 23 21 21 18 19 18 17 17 17 14 13 21 24 22 24 22 21 26 28 24 22
23 22 23 26 19 22 24 25 22 24 27 24 23 22 22 21 20 18 20 20 21 21
20 22 21 24 23 25 25 23 23 27 24 23 25 25 23 20 20 22 24 26 22 23
14 16 16 17 20 23 24 25 26 22 23 23 23 22 21 20 22 24 25 24 23 26
24 21 18 14 11 14 19 23 25 22 21 22 23 25 26 25 26 30 29 30 31 29
22 21 23 23 20 14 17 16 15 14 12 10 9 8 11 17 14 14 14 14 12 16
16 19 17 15 14 12 13 13 13 17 16 13 9 9 1 3 2 6 3 5 2 4

GFSNIL_850_spd_105.txt.gz
Wind_Speed
34 31 30 28 28 29 29 29 27 25 22 20 20 20 25 38 35 34 42 46 46 38
31 29 33 29 28 29 27 26 24 24 22 18 15 18 16 32 35 44 40 47 41 39
31 31 32 33 33 32 27 23 22 24 22 19 14 16 16 26 31 41 42 42 40 38
30 33 31 33 33 29 25 22 24 24 23 19 16 13 16 23 34 36 35 37 36 30
21 34 30 31 31 26 22 20 22 25 24 22 21 16 23 25 24 28 31 33 32 31
26 27 27 30 26 21 18 16 18 24 26 28 27 25 25 27 29 33 31 29 33 34
24 24 23 21 17 18 20 20 18 16 23 23 24 25 32 31 32 32 31 33 31 35
18 18 22 19 19 19 19 19 16 14 17 20 24 23 25 28 31 33 32 31 33 32
14 19 21 24 24 21 21 18 19 20 21 22 24 25 22 25 24 29 26 28 30 30
10 20 24 23 26 27 28 23 24 23 24 25 21 22 21 20 22 23 23 23 21 23
21 14 16 17 18 20 26 24 27 24 23 21 24 23 23 24 23 23 24 25 25 25
28 26 21 18 15 18 17 18 17 15 13 14 15 20 24 27 29 28 26 24 23 22
20 24 26 28 26 24 20 19 15 13 10 7 8 8 12 13 18 20 18 16 18 24
14 19 19 21 18 21 18 18 18 16 15 14 12 10 10 10 9 9 10 8 7 5

GFSNIL_850_spd_108.txt.gz
Wind_Speed
41 43 41 35 31 28 26 28 32 33 34 29 30 28 33 35 34 33 39 53 45 49
42 43 42 36 33 28 24 25 27 28 28 28 28 27 31 32 29 33 40 34 39 50
37 38 37 36 32 31 26 23 24 25 26 27 26 24 23 26 29 36 30 35 41 37
27 30 30 31 31 33 30 24 24 24 23 25 25 22 24 26 22 28 33 37 41 42
17 26 30 32 33 36 33 27 23 23 23 25 23 20 22 23 22 22 32 34 38 42
13 15 20 31 35 32 31 25 23 22 23 24 24 21 18 21 20 20 29 33 33 31
10 13 19 27 30 31 29 23 18 15 20 24 24 23 22 22 24 22 24 25 27 29
4 11 16 22 34 27 23 22 15 14 15 22 25 25 28 26 25 26 26 27 28 29
1 5 9 24 31 34 30 25 21 19 18 20 22 22 25 26 28 31 31 30 31 29
16 6 5 7 15 30 25 24 25 22 22 23 22 22 21 22 23 27 29 30 32 33
28 20 14 6 9 16 24 27 25 28 26 28 26 22 21 23 23 23 26 27 27 27
29 29 24 22 19 17 11 15 15 19 20 24 25 25 24 23 24 24 24 23 24 24
22 21 24 23 25 25 21 19 15 16 14 11 14 17 21 17 20 24 22 20 20 24
15 16 17 16 16 16 19 17 20 17 22 18 18 17 12 8 11 13 13 12 12 13

GFSNIL_850_spd_111.txt.gz
Wind_Speed
35 39 40 42 42 41 36 33 31 33 35 35 35 33 32 33 33 32 35 39 46 46
24 35 40 41 42 40 38 34 32 28 28 33 34 34 35 34 32 31 36 39 40 46
31 32 37 41 43 42 39 35 32 28 27 30 32 34 34 32 32 30 34 35 37 40
22 26 26 35 38 36 36 34 32 26 26 28 29 32 33 29 28 25 24 29 37 28
10 14 22 26 30 29 32 32 31 29 26 27 27 30 27 27 23 24 24 28 34 32
5 11 15 14 23 27 29 31 33 32 29 28 26 26 26 23 21 22 23 26 32 34
8 5 10 18 19 21 28 32 33 34 31 26 24 24 23 21 19 18 18 22 33 32
14 9 8 13 17 22 28 29 32 31 25 20 20 22 23 21 18 19 19 16 24 33
20 17 11 8 8 20 29 29 34 25 25 20 22 25 24 24 23 21 22 24 22 21
26 23 20 15 8 11 12 23 24 29 24 20 20 21 23 22 24 25 27 27 27 29
32 30 27 23 17 13 6 4 8 16 19 23 23 21 22 23 23 25 25 27 29 26
27 28 28 30 27 24 20 15 12 8 3 9 15 23 25 25 25 26 25 24 27 27
21 22 24 24 24 23 23 21 19 17 16 16 5 4 4 20 23 27 25 23 21 25
19 20 20 18 18 19 19 18 18 18 16 15 17 16 11 7 8 9 15 14 12 12

GFSNIL_850_spd_114.txt.gz
Wind_Speed
30 33 33 34 36 37 35 35 33 32 31 32 31 33 37 36 36 33 33 34 35 38
26 32 32 35 37 38 38 35 35 32 30 32 32 32 35 36 35 34 33 32 34 36
16 23 29 34 38 38 38 37 37 35 32 31 32 32 34 36 37 35 33 33 33 33
11 16 23 29 32 35 38 41 39 36 33 31 31 30 34 35 35 35 34 33 34 35
4 8 11 18 22 24 29 33 34 32 31 31 31 30 33 34 34 35 33 30 27 27
6 0 7 14 17 24 22 25 27 27 28 30 33 31 30 32 33 32 29 26 27 25
11 10 4 4 12 16 18 16 19 23 27 30 34 32 31 30 28 27 24 23 23 25
17 14 10 6 6 8 13 17 20 22 27 28 34 34 30 28 26 23 21 21 19 21
25 21 17 14 11 7 9 14 22 23 27 30 32 29 22 25 26 21 20 20 20 16
32 31 28 21 19 16 8 5 6 8 22 24 20 24 23 26 24 22 22 20 19 21
30 31 31 29 27 23 19 15 12 8 5 4 8 14 21 27 22 22 23 23 25 26
26 27 28 29 28 27 24 22 21 19 15 9 12 16 10 16 17 21 22 23 23 25
24 25 25 25 25 24 23 22 19 20 19 17 17 17 14 7 3 8 11 15 18 21
24 23 23 21 21 22 22 21 22 23 23 22 22 21 19 19 14 11 4 3 3 4

GFSNIL_850_spd_117.txt.gz
Wind_Speed
27 31 32 32 35 35 35 35 40 42 36 34 32 30 31 29 32 35 34 36 37 36
27 29 31 32 31 32 35 36 36 34 33 32 32 32 32 31 32 35 37 36 35 33
17 24 29 31 29 26 31 33 34 33 31 33 33 33 33 34 33 34 36 37 35 33
4 8 14 18 25 31 24 31 34 33 32 33 34 33 33 36 35 36 35 37 36 36
4 1 5 8 13 21 24 19 21 24 28 34 32 33 33 34 37 36 37 36 35 35
9 4 3 5 7 12 16 20 20 20 22 25 28 31 31 32 36 34 35 34 33 34
16 13 10 5 4 6 7 13 19 20 18 15 18 22 27 30 34 35 34 34 33 32
21 18 15 10 8 5 1 7 8 11 16 17 19 22 26 29 35 41 35 27 28 25
29 25 22 19 16 10 9 6 6 7 10 13 18 23 26 29 28 28 28 19 24 24
32 31 30 25 21 20 18 13 10 7 5 8 13 19 26 28 28 23 25 20 22 24
29 30 29 29 28 26 24 22 19 17 15 13 12 11 12 20 27 20 23 28 26 28
26 26 26 27 28 28 26 25 24 21 20 19 20 17 13 10 10 11 13 14 21 26
25 23 24 24 25 25 25 25 23 23 25 24 24 25 21 14 6 3 5 6 7 14
24 23 22 20 20 20 20 20 22 23 24 24 23 23 23 21 19 15 10 7 8 10

GFSNIL_850_spd_120.txt.gz
Wind_Speed
31 34 29 27 21 21 31 32 32 35 43 43 40 38 36 33 30 29 30 33 37 37
17 21 26 26 29 31 28 30 30 33 33 42 38 40 38 37 33 31 28 29 32 35
10 14 19 22 25 23 28 26 28 30 32 31 33 34 39 41 34 32 32 32 32 35
6 6 9 16 20 26 26 27 23 23 24 26 27 29 33 35 29 35 38 36 35 35
11 7 2 2 7 12 20 23 20 13 16 21 22 27 29 33 36 39 37 39 40 37
15 11 8 4 1 2 6 12 18 14 16 14 15 23 28 33 35 37 37 40 41 37
20 16 13 10 7 4 2 5 11 15 19 18 20 22 26 29 31 32 34 35 39 39
27 22 19 15 12 9 6 5 2 3 8 14 22 25 26 26 26 28 30 31 37 41
30 28 26 24 21 17 15 13 8 6 4 6 10 16 21 24 23 26 29 31 33 35
30 30 31 28 26 26 24 20 18 16 14 11 9 9 14 19 20 22 25 29 30 31
28 28 27 27 28 28 27 26 24 22 20 18 16 12 9 7 4 9 16 21 24 30
25 25 24 25 25 25 23 23 24 23 22 22 22 21 16 12 8 4 2 7 11 13
25 24 23 22 21 21 21 22 22 22 22 22 22 21 22 20 16 12 10 7 4 8
23 22 21 21 20 19 19 18 19 21 21 22 22 22 21 20 19 20 17 15 14 14

GFSNIL_850_spd_126.txt.gz
Wind_Speed
29 25 32 55 18 50 45 37 31 28 26 36 35 33 33 34 35 34 34 32 29 27
16 15 18 7 3 32 39 37 35 24 23 19 22 25 28 31 33 33 31 30 28 26
10 9 15 17 10 3 12 19 20 23 15 16 19 21 24 28 31 30 27 28 26 23
24 9 7 10 17 12 9 14 14 7 9 10 12 14 21 25 30 27 34 32 35 36
34 31 26 20 17 14 20 14 6 4 10 11 11 13 16 21 27 29 31 33 35 32
38 38 31 26 17 11 8 4 10 11 9 10 12 15 17 18 23 24 23 26 28 32
41 38 33 31 29 24 18 13 9 8 1 3 8 12 13 14 15 16 20 23 23 25
35 37 36 37 32 25 23 20 17 11 5 3 4 4 5 9 11 14 17 21 23 25
39 32 33 34 35 30 30 28 22 21 19 16 15 14 9 8 7 9 10 13 17 22
37 32 34 34 33 34 35 30 28 26 25 24 22 20 16 14 12 12 12 12 13 14
34 34 31 30 33 32 30 29 29 29 28 27 26 22 21 18 16 14 14 15 15 16
33 30 27 30 30 29 29 29 29 29 26 25 24 22 21 20 20 19 20 19 18 17
33 32 32 30 29 27 26 25 25 25 26 25 25 24 23 23 21 20 20 19 18 18
31 31 30 27 26 24 24 22 24 24 23 24 25 24 25 23 22 22 21 21 21 22